Temperature
17 18 19 19 22 23 23 23 23 23 23 23 22 22 23 23 23 22 20 19 18 17 16 15 14 14 14 13 13 13 12 12 12 11 11 11 11 10 10 11 11 11 11 11 11 11 11 11 11
17 18 18 21 22 22 22 23 23 23 23 21 21 22 23 22 20 20 20 19 18 17 16 15 15 14 14 13 13 12 12 12 11 11 11 10 10 10 10 10 10 10 11 11 11 11 11 11 11
17 18 20 22 22 23 23 23 23 22 21 22 22 22 22 22 20 19 19 19 18 17 16 15 15 14 14 13 13 12 12 11 11 11 10 10 10 10 10 10 10 10 10 10 11 11 10 10 11
17 19 21 22 22 23 23 23 23 22 21 21 22 22 21 19 19 19 19 19 18 17 15 15 15 14 13 13 12 12 12 11 11 10 10 10 10 10 10 10 10 10 10 10 10 10 10 10 10
18 20 22 22 22 22 23 22 22 23 23 22 22 23 21 20 20 19 19 18 18 17 15 15 15 14 13 13 12 12 12 11 11 10 10 10 10 10 10 10 10 10 10 10 10 10 10 10 10
19 21 22 22 22 22 22 21 22 23 23 22 22 23 21 20 19 19 19 18 17 16 15 15 15 14 13 12 12 12 11 11 11 10 10 10 10 10 10 10 10 10 10 10 10 10 10 10 10
20 21 21 22 21 22 22 21 22 23 23 22 22 23 21 19 19 19 18 17 16 16 15 15 14 13 13 12 12 12 11 11 11 10 10 10 9 9 9 9 10 10 10 10 9 9 9 9 9
19 21 21 21 21 22 21 21 21 22 23 20 20 23 22 19 19 19 18 17 16 16 15 14 14 13 12 12 12 11 11 11 10 10 10 10 9 9 9 9 9 9 9 9 9 9 9 9 9
18 21 21 21 21 22 21 21 20 20 21 20 19 20 20 20 19 19 18 17 17 16 15 14 13 13 12 12 11 11 11 11 10 10 10 10 9 9 9 9 9 9 9 9 9 9 9 9 9
19 20 21 21 21 22 21 21 21 21 21 21 20 19 20 20 19 18 18 18 17 17 15 14 13 13 12 12 11 11 11 10 10 10 10 9 9 9 9 9 9 9 9 9 9 9 9 8 8
20 20 21 20 20 20 20 20 20 21 22 22 21 20 20 19 18 18 18 18 18 17 16 15 14 13 12 12 11 11 10 10 10 10 9 9 9 9 9 9 9 9 9 8 8 8 8 8 8
20 20 20 20 19 19 20 20 20 20 21 21 20 20 19 19 19 18 17 17 17 17 16 15 14 13 12 12 11 11 11 10 10 10 10 9 9 9 9 9 9 8 8 8 8 8 8 8 8
20 20 19 18 18 18 19 19 20 20 20 19 19 19 18 18 18 17 17 16 16 17 16 15 14 13 12 12 11 11 11 11 10 10 10 9 9 9 9 9 9 9 9 8 8 8 8 8 8
19 19 19 19 18 18 18 19 19 20 19 18 18 18 18 18 18 17 17 17 17 16 16 15 14 13 12 12 11 11 11 11 10 10 10 10 9 9 9 9 9 9 9 8 8 8 8 8 8
18 19 20 19 18 18 18 19 20 20 18 18 18 18 17 17 17 17 17 17 17 16 16 15 14 13 12 12 11 11 11 10 10 10 10 10 9 9 9 9 9 9 9 9 8 8 8 8 8
19 19 19 19 18 17 18 20 21 19 18 18 19 18 17 17 17 17 17 17 16 16 15 15 14 13 13 12 11 11 11 10 10 10 10 10 9 9 9 9 9 9 9 9 8 8 8 8 7
19 19 19 19 18 18 18 19 21 18 17 18 19 19 17 17 17 17 17 17 16 16 15 15 14 14 13 12 11 11 11 10 10 10 10 10 9 9 9 9 9 9 9 8 8 8 8 7 7
18 19 18 19 19 18 18 19 20 20 18 19 19 19 18 17 17 17 17 17 16 16 15 15 14 14 13 12 11 11 11 10 10 10 10 10 10 9 9 9 9 9 8 8 8 8 8 7 7
19 18 18 19 18 17 18 19 20 20 19 19 19 19 18 17 17 16 17 17 16 16 15 15 14 13 12 12 11 11 10 10 10 10 10 10 9 9 9 9 9 9 8 8 8 8 7 7 7
18 18 18 19 17 17 18 18 20 20 19 19 19 19 18 17 16 16 17 16 16 16 15 15 14 13 13 12 11 11 11 10 10 10 10 10 9 9 9 9 9 8 8 8 8 7 7 7 7
17 17 18 18 18 17 16 18 20 20 19 18 17 17 17 17 16 16 16 16 16 15 15 14 14 13 12 12 11 11 10 10 10 10 10 10 9 9 9 9 9 8 8 8 7 7 7 6 6
17 17 17 17 17 18 17 17 19 20 20 19 18 17 17 16 15 14 15 16 16 15 15 14 14 13 12 12 11 11 11 10 10 10 10 10 9 9 9 9 8 8 8 7 7 7 6 6 5
17 17 16 16 16 17 17 17 19 20 19 20 20 18 16 15 14 14 15 15 15 15 14 14 13 13 12 12 11 11 11 10 10 10 10 10 9 9 9 9 8 8 8 7 7 6 6 6 5
16 15 15 15 16 16 17 17 18 20 20 20 20 18 16 14 13 13 13 14 14 14 13 13 13 12 12 12 11 11 11 11 10 10 10 9 9 9 9 8 8 8 7 7 6 6 6 5 5
16 16 16 16 16 17 16 16 18 20 20 19 18 17 16 14 13 12 12 13 13 13 13 13 12 12 12 11 11 11 11 10 10 10 10 10 9 9 9 8 8 7 7 6 6 5 5 5 4
16 17 16 16 17 17 15 16 19 20 18 17 16 15 14 13 12 12 12 12 13 13 13 13 12 12 12 11 11 11 10 10 10 10 10 9 9 9 8 8 7 7 6 6 5 5 5 4 4
16 16 18 17 16 15 17 17 18 19 19 18 17 15 14 13 12 11 11 12 12 13 13 12 12 12 12 11 11 11 10 10 10 10 9 9 9 8 8 7 7 6 6 5 5 5 4 4 3
17 17 15 15 15 15 17 17 18 19 20 19 18 17 15 12 12 11 11 12 12 12 12 12 12 12 11 11 11 11 10 10 10 9 9 9 8 8 7 7 6 6 5 5 4 4 4 3 3
15 15 16 16 16 16 16 17 19 19 19 18 18 16 15 13 12 12 12 12 12 12 12 12 11 11 11 11 11 10 10 10 9 9 9 8 8 7 7 6 6 5 5 4 4 4 3 3 2
16 16 16 16 15 15 16 18 19 18 17 17 16 16 14 14 13 13 12 12 12 12 12 11 11 11 11 11 10 10 10 9 9 9 8 8 7 7 6 6 5 5 5 4 4 3 3 2 2
Wind_Speed
2 3 3 3 5 5 7 6 5 6 5 3 3 3 2 2 2 4 5 11 12 17 19 20 18 16 15 14 14 14 13 13 12 12 12 12 11 12 12 12 13 13 14 14 14 14 14 15 15
2 2 3 4 6 7 7 7 8 6 5 5 5 4 4 4 4 7 8 12 14 18 19 19 19 17 16 15 15 14 13 13 12 12 12 11 11 11 11 12 12 12 13 13 13 13 13 13 14
2 3 4 5 6 6 7 7 8 6 6 5 5 3 2 5 6 6 7 15 15 18 17 19 19 17 16 15 15 14 13 12 12 12 12 11 11 11 11 11 11 11 11 12 12 12 11 12 12
3 4 4 6 8 5 4 6 6 8 6 4 5 5 4 4 3 5 12 15 16 17 17 19 19 18 16 15 15 14 14 13 12 12 11 11 10 10 10 10 10 10 10 10 10 10 10 10 11
3 4 6 7 7 4 3 3 6 9 8 6 6 4 6 4 4 8 13 14 16 17 17 19 19 18 17 16 15 15 14 13 12 11 11 10 10 9 9 8 8 8 8 9 9 9 9 9 9
3 4 7 9 7 4 4 4 7 9 7 6 6 5 5 5 7 9 13 13 15 16 16 18 18 18 17 16 15 14 13 13 12 11 11 10 9 8 7 7 7 6 6 6 7 7 7 7 7
3 5 6 7 7 6 4 4 8 9 9 7 5 5 6 8 7 10 13 12 14 15 15 16 17 17 17 16 15 15 13 13 12 11 11 9 8 7 7 6 5 4 4 4 5 5 5 6 6
2 4 6 6 7 6 3 4 3 6 6 3 4 5 4 8 10 11 12 11 13 14 14 15 16 16 16 16 16 15 14 13 12 11 11 9 8 7 6 5 4 3 2 2 3 3 4 4 4
3 6 7 6 6 5 4 5 3 2 4 4 4 1 4 10 12 12 12 11 12 13 14 14 15 15 15 15 16 15 14 13 13 12 12 10 6 6 5 3 3 1 0 1 2 3 3 3 1
4 8 7 3 3 2 3 4 4 5 7 7 6 4 6 11 13 15 15 16 16 16 16 14 14 15 14 13 14 13 12 12 11 9 10 7 5 4 3 4 4 3 2 2 2 3 3 5 4
5 7 5 4 3 2 3 3 4 6 8 9 9 9 11 12 14 15 16 16 16 16 16 15 14 15 14 12 12 11 10 10 10 9 9 7 6 5 4 4 4 4 4 4 3 5 4 5 5
6 6 4 3 3 3 4 3 5 10 10 5 6 6 11 14 16 17 16 15 14 15 16 16 15 14 14 13 12 11 10 9 9 9 9 7 5 5 5 4 3 3 3 4 5 5 5 6 6
8 6 5 5 5 5 6 9 9 12 12 7 5 8 12 14 15 14 13 13 13 15 16 17 16 15 14 13 11 11 10 10 10 9 9 8 6 5 5 5 4 5 4 4 5 6 6 7 7
5 6 6 6 6 4 8 11 8 13 10 9 10 11 13 14 14 13 13 14 14 15 16 16 17 17 15 13 11 11 11 10 10 9 9 9 7 6 5 5 5 5 5 5 5 6 6 7 7
4 5 7 7 6 4 5 11 12 12 8 11 12 12 12 13 13 14 14 14 14 15 15 16 17 17 16 15 14 12 11 11 9 9 9 9 8 6 5 4 4 4 4 5 5 5 6 6 6
5 7 9 6 4 4 6 12 7 4 7 11 12 12 12 13 13 13 12 12 13 13 15 16 14 17 17 14 13 11 11 10 9 8 8 8 8 7 5 4 3 3 3 4 4 4 5 6 6
8 9 9 6 4 5 7 11 9 5 8 12 13 13 13 13 14 13 12 11 12 13 14 16 16 17 16 14 11 10 9 9 8 8 7 7 7 6 5 4 3 3 3 3 3 4 5 6 6
10 10 9 8 4 6 10 15 16 13 12 16 16 14 14 15 16 13 12 11 11 12 13 15 16 16 15 12 9 7 7 6 7 6 6 7 6 6 5 3 3 3 2 2 3 3 3 4 6
9 10 12 10 4 6 13 18 19 17 16 17 18 17 16 17 14 11 11 11 11 12 14 15 16 16 14 11 10 9 8 7 5 6 7 7 6 6 5 3 3 2 2 2 2 2 3 3 5
12 13 14 10 5 6 13 20 21 19 18 17 18 17 17 16 13 13 13 12 13 14 15 16 17 17 16 13 11 8 8 5 5 6 6 6 6 6 5 4 3 3 2 2 1 1 2 2 3
16 16 15 13 9 8 10 15 14 12 12 13 15 16 16 15 16 15 15 14 14 14 15 14 16 17 16 14 10 8 6 5 5 6 5 6 6 6 6 5 4 3 2 2 1 1 2 3 2
17 13 13 12 11 9 5 11 12 11 13 12 11 11 12 13 15 15 15 16 15 14 14 14 15 16 15 15 14 15 11 9 8 7 7 7 7 7 6 6 5 4 3 2 2 1 2 3 3
11 6 8 9 11 13 11 10 12 9 11 10 7 7 8 10 12 14 15 16 14 14 13 13 15 15 15 15 16 15 12 9 8 8 9 8 7 7 7 6 5 4 3 2 2 2 3 3 4
8 6 3 4 7 13 13 11 11 7 8 9 8 7 6 7 10 12 13 13 13 13 13 13 15 15 14 15 15 15 14 12 12 11 10 8 6 6 7 6 5 4 3 3 2 3 4 4 5
12 10 6 7 8 9 5 8 11 10 9 11 13 12 8 6 9 12 15 15 15 15 15 14 16 15 15 15 15 14 14 14 14 12 11 9 7 6 7 6 5 4 4 3 3 4 4 5 6
18 17 12 7 8 5 5 9 9 9 10 10 11 10 7 6 9 12 15 16 16 16 16 16 17 16 15 15 14 13 13 11 10 11 10 9 7 7 7 7 6 5 5 4 4 4 5 5 6
13 16 15 11 7 8 9 8 9 10 8 6 6 6 5 5 8 12 14 15 16 16 17 17 17 16 16 15 14 13 13 11 11 11 9 8 7 6 8 7 6 6 5 5 5 5 6 6 7
12 12 8 10 8 10 10 11 8 9 7 6 5 5 3 3 7 11 13 14 14 15 15 16 16 16 15 15 13 11 12 11 11 10 10 9 8 8 8 7 6 6 6 6 6 6 6 8 8
13 15 11 11 10 8 8 7 6 8 5 6 6 5 3 3 7 10 11 13 14 14 15 15 15 15 15 15 14 13 12 11 11 10 10 9 8 8 8 7 7 6 6 6 7 8 8 9 10
19 20 20 15 12 10 9 8 3 6 6 6 6 5 3 3 6 9 11 13 14 15 15 16 15 15 15 15 14 13 12 12 11 10 10 9 9 8 8 7 7 7 7 7 8 9 9 10 11
Wind_Direction
285 292 256 219 204 209 198 172 167 158 165 146 147 174 158 106 56 83 110 149 148 155 158 160 158 155 151 144 136 129 124 121 113 106 100 95 90 83 78 73 69 65 62 60 59 59 58 57 56
290 261 219 211 214 198 183 179 177 163 134 130 142 155 148 114 79 106 135 154 156 157 160 161 157 155 150 144 139 133 130 125 119 113 105 98 92 86 81 76 72 68 65 63 61 60 60 57 55
233 253 213 197 214 206 172 175 174 151 150 163 154 164 144 118 122 128 139 155 158 159 162 156 158 157 153 149 144 138 134 130 125 118 110 103 95 89 84 79 75 72 69 66 64 61 59 57 54
224 207 211 217 203 200 181 160 166 163 169 187 178 156 136 90 108 118 140 156 159 161 162 158 161 159 157 155 149 144 140 135 130 124 115 108 100 94 88 83 79 75 72 69 66 62 59 56 53
231 211 202 206 200 189 194 176 177 181 177 180 195 169 144 119 110 132 150 159 162 161 162 160 165 163 161 159 154 148 146 143 138 132 124 116 109 103 96 90 85 79 73 69 66 63 59 54 51
204 214 210 203 192 186 189 184 188 192 180 177 195 186 142 128 144 147 157 162 164 162 163 162 167 168 165 162 159 156 154 152 148 141 132 125 120 115 107 99 91 83 75 67 63 59 55 51 47
219 209 214 204 194 190 178 181 197 193 194 186 193 199 153 147 140 151 160 162 165 166 167 167 171 172 170 166 164 161 160 157 154 148 140 135 132 128 117 106 100 90 80 68 57 52 46 40 36
254 210 204 205 201 191 161 172 197 207 198 153 199 218 175 145 141 148 156 163 168 172 174 173 174 175 175 172 167 165 165 162 158 152 146 145 144 139 130 132 119 107 90 65 42 36 35 30 18
232 223 212 205 204 186 164 180 168 203 181 176 204 251 85 129 144 149 156 166 174 180 182 181 179 177 178 174 169 170 169 166 163 158 154 161 164 154 156 141 157 176 177 343 356 3 1 332 319
214 225 217 200 210 187 179 203 180 190 205 205 203 179 142 155 166 171 175 177 181 185 187 186 184 180 179 175 174 179 176 174 178 171 168 173 171 174 179 169 203 230 252 265 298 309 284 288 315
210 225 211 209 219 227 213 216 201 218 228 231 230 206 176 179 187 191 192 189 187 187 188 190 188 186 183 180 181 180 180 178 181 179 177 179 183 190 202 212 210 226 241 261 265 270 292 305 313
213 215 214 210 191 219 235 233 227 232 246 254 247 216 186 195 199 201 199 194 188 189 192 193 191 191 190 187 184 183 182 183 184 185 188 190 195 206 212 226 235 246 253 266 273 285 290 291 293
219 217 218 231 227 241 248 246 256 252 253 254 235 211 210 210 209 208 206 198 193 194 194 195 194 194 191 190 187 188 188 186 187 188 195 200 205 214 220 230 232 241 254 265 274 282 293 295 298
213 217 228 241 241 236 250 260 253 256 254 245 234 227 222 219 214 208 204 203 200 198 196 194 196 195 192 191 190 191 191 190 189 191 197 204 214 219 224 231 236 244 252 264 274 283 289 293 297
199 228 242 234 232 230 244 257 244 258 248 245 241 235 229 224 217 214 210 208 206 201 196 194 195 195 195 195 194 193 191 190 191 196 201 206 215 220 224 238 243 249 254 260 270 276 283 292 294
200 230 240 217 215 206 230 261 255 250 237 252 250 241 231 225 221 219 214 213 210 203 197 193 191 194 195 195 193 191 190 188 192 196 202 204 208 214 223 235 245 247 252 261 274 285 288 292 298
219 234 239 236 203 205 232 266 273 259 252 262 258 247 236 229 223 218 213 211 207 202 194 189 189 191 192 190 186 184 182 184 186 191 193 194 201 206 214 224 231 228 245 262 274 283 299 303 307
222 232 239 247 209 224 254 269 277 273 260 264 262 252 240 232 226 213 206 204 201 196 191 188 186 188 185 180 176 170 170 174 176 181 183 181 183 192 201 203 210 218 233 253 268 285 301 308 315
237 242 254 261 249 255 270 277 279 279 268 261 259 252 242 235 225 206 198 194 191 188 187 186 183 183 179 177 178 177 178 171 164 165 168 173 174 177 181 182 189 200 218 243 276 290 298 310 326
228 244 258 270 249 256 282 281 279 274 266 262 261 255 245 235 214 200 195 190 189 187 185 183 184 182 183 183 179 178 166 160 153 153 157 163 165 165 165 176 175 177 185 199 231 286 297 311 331
228 240 253 265 279 255 286 282 270 268 263 262 259 256 250 235 219 202 194 191 188 186 184 182 182 181 182 175 161 144 136 138 154 161 157 159 160 158 159 165 166 167 184 189 207 258 288 303 311
235 234 246 258 271 278 279 293 285 280 278 270 265 256 248 233 221 206 194 189 188 184 180 179 177 178 177 173 173 173 177 178 180 170 161 156 158 156 157 160 163 165 174 184 198 238 270 282 292
230 212 222 245 260 272 256 268 280 277 275 282 282 273 256 236 219 206 197 189 184 177 175 175 174 176 176 179 181 182 185 177 160 158 158 159 158 159 160 163 166 169 177 189 205 232 254 267 279
165 137 150 216 250 261 253 248 276 260 267 291 301 303 279 241 216 204 192 181 176 173 172 172 173 175 176 180 182 185 179 167 160 165 166 168 164 164 168 170 174 178 185 197 219 240 252 263 269
187 204 226 233 228 248 207 235 258 265 269 283 294 301 298 245 209 195 184 181 177 175 174 175 175 175 177 180 183 183 178 173 173 174 175 174 174 177 178 180 185 189 194 208 226 242 256 261 265
197 208 219 238 247 247 200 239 257 277 284 283 281 287 285 238 204 195 189 185 181 179 178 178 179 177 177 180 180 179 174 175 177 178 177 181 182 180 177 183 191 197 205 215 230 248 255 261 263
189 212 229 249 266 266 250 251 276 274 274 283 292 291 278 230 203 196 191 189 185 183 183 183 181 179 179 179 176 175 174 175 173 174 176 178 177 172 179 187 196 205 215 227 239 251 258 262 265
209 191 189 215 237 248 251 249 248 255 272 305 320 323 306 217 200 196 193 191 189 187 185 185 185 182 179 178 177 175 176 175 171 172 177 178 177 177 184 194 203 213 224 233 242 254 260 265 266
185 194 204 214 229 241 254 243 226 243 271 296 317 326 309 218 199 196 194 192 189 187 186 186 187 183 180 180 178 176 175 174 174 178 181 181 181 185 193 201 211 221 232 239 247 254 261 265 269
206 205 203 212 218 228 251 256 210 238 261 275 293 308 302 221 200 196 193 190 189 190 190 190 189 188 185 182 180 179 175 175 179 183 183 184 188 193 200 206 216 227 236 245 253 260 262 266 270
Height
1533 1534 1536 1539 1538 1535 1534 1533 1531 1534 1535 1537 1539 1539 1538 1538 1540 1546 1547 1545 1546 1548 1550 1551 1553 1555 1557 1558 1559 1559 1559 1560 1560 1559 1559 1559 1558 1558 1558 1557 1556 1555 1555 1554 1553 1552 1551 1550 1549
1533 1535 1538 1538 1534 1536 1535 1531 1532 1533 1536 1539 1540 1540 1539 1540 1543 1544 1544 1545 1546 1548 1550 1552 1553 1555 1557 1558 1559 1559 1560 1560 1560 1560 1560 1560 1560 1559 1558 1558 1557 1556 1555 1555 1554 1553 1552 1551 1550
1534 1535 1538 1533 1532 1531 1531 1530 1531 1535 1538 1539 1539 1540 1540 1542 1544 1544 1545 1545 1547 1548 1551 1552 1553 1555 1557 1558 1559 1560 1560 1561 1561 1561 1561 1561 1560 1560 1559 1559 1558 1557 1556 1556 1555 1554 1553 1552 1551
1535 1537 1537 1531 1531 1529 1528 1529 1533 1535 1538 1539 1539 1540 1542 1542 1543 1544 1544 1545 1547 1549 1551 1552 1553 1555 1557 1558 1559 1560 1561 1561 1561 1562 1562 1561 1561 1561 1560 1559 1559 1558 1557 1557 1556 1555 1554 1553 1552
1535 1535 1532 1531 1530 1529 1530 1532 1534 1533 1535 1537 1538 1537 1541 1542 1542 1543 1544 1546 1548 1549 1551 1552 1553 1555 1557 1558 1559 1560 1561 1561 1562 1562 1562 1562 1562 1561 1561 1560 1560 1559 1559 1558 1557 1556 1555 1554 1554
1536 1532 1530 1531 1529 1529 1530 1533 1533 1533 1534 1537 1538 1537 1540 1541 1542 1543 1544 1546 1548 1549 1551 1552 1553 1555 1557 1558 1559 1560 1561 1562 1562 1562 1562 1562 1562 1562 1561 1561 1560 1560 1559 1559 1558 1557 1556 1555 1554
1535 1530 1528 1528 1529 1529 1531 1532 1532 1531 1533 1535 1537 1537 1539 1540 1541 1542 1544 1546 1547 1549 1550 1552 1553 1555 1556 1558 1559 1560 1561 1562 1562 1563 1563 1563 1563 1562 1562 1561 1561 1560 1560 1559 1558 1558 1557 1556 1555
1533 1530 1530 1529 1529 1529 1531 1532 1532 1532 1533 1535 1536 1535 1537 1539 1539 1541 1543 1544 1546 1548 1550 1551 1553 1554 1556 1557 1558 1560 1561 1562 1562 1562 1563 1563 1563 1562 1562 1562 1561 1561 1560 1559 1559 1558 1557 1556 1555
1533 1531 1529 1529 1528 1528 1531 1531 1533 1533 1534 1534 1535 1536 1536 1536 1538 1539 1541 1542 1544 1546 1548 1550 1551 1553 1555 1557 1558 1559 1560 1561 1562 1562 1562 1563 1563 1563 1563 1562 1562 1561 1560 1560 1559 1558 1557 1556 1554
1532 1529 1527 1528 1528 1528 1530 1530 1531 1532 1532 1533 1533 1533 1534 1535 1536 1537 1538 1540 1541 1543 1545 1547 1549 1551 1553 1555 1557 1558 1559 1560 1561 1562 1562 1563 1563 1563 1562 1562 1561 1561 1560 1559 1558 1557 1556 1555 1555
1529 1527 1527 1529 1530 1530 1530 1530 1531 1530 1529 1529 1530 1531 1531 1532 1533 1535 1536 1538 1539 1541 1543 1545 1547 1549 1551 1553 1555 1557 1558 1559 1560 1561 1562 1562 1562 1562 1562 1562 1561 1560 1560 1559 1558 1557 1556 1555 1554
1528 1527 1528 1528 1529 1530 1529 1529 1529 1528 1527 1528 1528 1529 1529 1529 1530 1532 1533 1535 1537 1538 1540 1542 1544 1546 1549 1551 1553 1555 1556 1557 1559 1559 1560 1561 1561 1561 1561 1561 1560 1560 1559 1558 1557 1556 1555 1554 1552
1526 1526 1527 1528 1528 1528 1528 1527 1527 1525 1525 1525 1524 1525 1525 1526 1527 1529 1531 1532 1533 1535 1537 1539 1541 1543 1546 1548 1550 1552 1554 1556 1557 1558 1558 1559 1560 1560 1560 1559 1559 1558 1558 1557 1556 1555 1554 1553 1551
1525 1525 1526 1526 1526 1526 1526 1524 1525 1520 1521 1521 1521 1521 1522 1523 1524 1525 1526 1527 1529 1531 1533 1535 1538 1540 1543 1545 1547 1550 1552 1553 1555 1556 1557 1557 1558 1558 1558 1558 1557 1557 1556 1555 1554 1553 1552 1550 1549
1525 1524 1523 1523 1524 1524 1525 1521 1518 1517 1518 1517 1517 1517 1517 1518 1519 1520 1522 1523 1525 1527 1530 1531 1534 1537 1539 1542 1545 1547 1549 1551 1552 1554 1555 1555 1556 1556 1556 1556 1555 1555 1554 1553 1552 1551 1549 1548 1546
1523 1522 1521 1519 1521 1522 1525 1516 1512 1513 1514 1513 1513 1513 1513 1513 1514 1516 1517 1519 1521 1523 1525 1527 1530 1533 1536 1539 1542 1544 1546 1548 1550 1551 1552 1553 1554 1554 1554 1554 1553 1552 1552 1551 1550 1548 1547 1545 1544
1519 1518 1517 1517 1518 1519 1519 1513 1509 1511 1511 1509 1508 1508 1508 1509 1509 1511 1512 1514 1516 1518 1520 1523 1525 1529 1532 1536 1539 1541 1544 1546 1547 1549 1550 1551 1551 1552 1552 1551 1551 1550 1549 1548 1547 1546 1545 1543 1541
1515 1515 1516 1515 1515 1517 1515 1509 1505 1506 1506 1504 1502 1502 1502 1502 1503 1505 1507 1509 1511 1513 1515 1518 1521 1525 1528 1532 1535 1538 1540 1543 1544 1546 1547 1548 1549 1549 1549 1549 1548 1547 1546 1545 1544 1543 1541 1540 1538
1511 1513 1513 1512 1513 1516 1510 1505 1500 1499 1499 1497 1495 1495 1495 1495 1498 1499 1501 1504 1506 1508 1510 1513 1516 1520 1524 1527 1531 1534 1537 1539 1541 1543 1544 1545 1546 1546 1546 1546 1545 1545 1544 1543 1542 1541 1539 1537 1535
1512 1513 1511 1509 1512 1513 1507 1500 1493 1491 1490 1489 1488 1487 1488 1489 1491 1492 1495 1498 1501 1503 1506 1509 1512 1516 1520 1524 1527 1531 1534 1536 1538 1540 1541 1542 1543 1543 1543 1543 1543 1542 1541 1540 1539 1538 1536 1535 1533
1509 1509 1508 1509 1508 1509 1509 1495 1486 1483 1484 1483 1482 1481 1481 1482 1484 1486 1488 1492 1495 1498 1501 1504 1508 1512 1516 1520 1524 1527 1530 1533 1535 1537 1538 1539 1540 1540 1540 1540 1540 1539 1538 1537 1536 1535 1534 1533 1531
1504 1504 1507 1509 1510 1504 1507 1500 1482 1478 1477 1476 1475 1475 1475 1476 1478 1480 1482 1486 1490 1493 1497 1501 1504 1508 1512 1516 1520 1523 1526 1529 1531 1533 1535 1536 1537 1537 1538 1537 1537 1536 1536 1535 1534 1533 1531 1530 1528
1498 1502 1507 1508 1507 1506 1502 1502 1481 1474 1472 1468 1469 1470 1470 1471 1472 1474 1477 1481 1485 1489 1493 1497 1501 1505 1509 1513 1516 1520 1524 1526 1529 1531 1532 1533 1534 1535 1535 1535 1534 1534 1533 1532 1531 1530 1528 1527 1525
1501 1505 1508 1508 1505 1505 1494 1497 1480 1468 1466 1464 1465 1466 1466 1466 1467 1469 1472 1476 1480 1485 1489 1493 1497 1501 1505 1509 1513 1517 1520 1522 1525 1527 1529 1530 1531 1531 1532 1532 1531 1531 1530 1529 1528 1527 1525 1524 1522
1497 1499 1505 1504 1502 1493 1491 1494 1476 1462 1463 1464 1464 1463 1463 1462 1463 1465 1467 1471 1475 1480 1485 1489 1493 1497 1502 1506 1510 1513 1517 1520 1522 1524 1526 1527 1528 1528 1529 1529 1528 1528 1527 1526 1525 1523 1522 1520 1518
1488 1489 1495 1498 1491 1485 1494 1487 1467 1460 1462 1462 1462 1460 1459 1459 1459 1461 1464 1468 1472 1477 1481 1485 1490 1494 1498 1502 1506 1510 1513 1516 1519 1521 1522 1524 1525 1525 1525 1525 1525 1524 1524 1523 1521 1520 1518 1516 1514
1483 1485 1481 1487 1490 1492 1479 1472 1465 1458 1457 1458 1458 1457 1456 1456 1456 1458 1461 1465 1469 1473 1478 1482 1486 1491 1495 1499 1503 1506 1509 1512 1515 1517 1519 1520 1521 1522 1522 1522 1521 1521 1520 1519 1517 1516 1514 1512 1510
1473 1476 1486 1488 1490 1487 1475 1471 1464 1455 1453 1454 1454 1454 1454 1454 1454 1456 1459 1462 1467 1471 1475 1480 1484 1488 1492 1496 1499 1503 1506 1509 1511 1514 1515 1516 1517 1518 1518 1518 1518 1517 1516 1515 1513 1511 1509 1507 1505
1474 1477 1474 1475 1475 1477 1473 1464 1452 1451 1452 1453 1453 1453 1452 1452 1453 1454 1457 1460 1464 1468 1472 1476 1480 1484 1488 1492 1496 1499 1502 1505 1507 1510 1511 1513 1513 1514 1514 1514 1513 1513 1511 1510 1508 1506 1504 1502 1500
1459 1460 1465 1471 1472 1471 1467 1459 1447 1451 1451 1452 1452 1451 1451 1450 1451 1453 1455 1458 1461 1464 1468 1472 1476 1480 1484 1488 1492 1495 1498 1501 1503 1505 1507 1508 1509 1510 1510 1509 1509 1508 1506 1505 1503 1501 1499 1496 1494